Estación de Maule

Ultimos registro cada 15 minutos 90
Estación Fecha / Hora Temperatura Humedad Lluvia Velocidad Dirección Radiación Presion
90 Maule 03-05-2026 22:30 12,9 91 0,2 0,4 251 0 1019,2
89 Maule 03-05-2026 22:15 13,2 90 0,6 0 251 0 1019,1
88 Maule 03-05-2026 22:00 13,6 88 0,4 0,4 251 0 1019
87 Maule 03-05-2026 21:45 13,8 84 0 0,9 94 0 1019,2
86 Maule 03-05-2026 21:30 13,6 85 0 0 91 0 1018,9
85 Maule 03-05-2026 21:15 13,6 87 0 0,4 55 0 1019,1
84 Maule 03-05-2026 21:00 13,6 87 0 0 55 0 1018,9
83 Maule 03-05-2026 20:45 13,5 86 0 0 55 0 1018,7
82 Maule 03-05-2026 20:30 13,6 88 0 0 55 0 1018,6
81 Maule 03-05-2026 20:15 13,7 87 0 0 55 0 1018,4
80 Maule 03-05-2026 20:00 13,9 85 0 0 55 0 1018,4
79 Maule 03-05-2026 19:45 14,1 83 0 0,4 55 0 1018,2
78 Maule 03-05-2026 19:30 14,4 83 0 0 55 0 1018,5
77 Maule 03-05-2026 19:15 14,6 80 0 0 55 0 1018,4
76 Maule 03-05-2026 19:00 14,9 78 0 0,4 47 0 1018,5
75 Maule 03-05-2026 18:45 15,4 75 0 0 47 0 1018,4
74 Maule 03-05-2026 18:30 15,8 72 0 0 47 0 1018,3
73 Maule 03-05-2026 18:15 15,9 70 0 0,4 47 0 1018,1
72 Maule 03-05-2026 18:00 16,2 70 0 0,4 47 0 1018,1
71 Maule 03-05-2026 17:45 16,6 70 0 0 47 12 1017,9
70 Maule 03-05-2026 17:30 16,8 69 0 0 47 28 1018,1
69 Maule 03-05-2026 17:15 16,9 69 0 0,4 47 46 1018,2
68 Maule 03-05-2026 17:00 17,1 66 0 0 47 60 1018,4
67 Maule 03-05-2026 16:45 17,2 65 0 0,4 47 69 1017,9
66 Maule 03-05-2026 16:30 17,3 64 0 0 48 83 1018,3
65 Maule 03-05-2026 16:15 17,3 63 0 0,4 45 171 1017,8
64 Maule 03-05-2026 16:00 17,1 64 0 0,9 68 206 1017,8
63 Maule 03-05-2026 15:45 16,8 67 0 0,4 73 255 1017,8
62 Maule 03-05-2026 15:30 16,6 65 0 0,4 73 128 1018,1
61 Maule 03-05-2026 15:15 16,6 68 0 0,9 78 176 1018,1
60 Maule 03-05-2026 15:00 16,4 67 0 0 78 178 1018,2
59 Maule 03-05-2026 14:45 16,2 68 0 1,3 43 287 1017,9
58 Maule 03-05-2026 14:30 15,7 69 0 0,4 85 323 1018,1
57 Maule 03-05-2026 14:15 15,3 73 0 1,3 92 234 1018,5
56 Maule 03-05-2026 14:00 15,2 72 0 0,4 82 186 1018,5
55 Maule 03-05-2026 13:45 15 72 0 0,4 57 223 1018,5
54 Maule 03-05-2026 13:30 14,6 72 0 0 56 260 1018,7
53 Maule 03-05-2026 13:15 14,2 74 0 0,4 55 294 1018,8
52 Maule 03-05-2026 13:00 13,8 76 0 0,9 49 269 1018,8
51 Maule 03-05-2026 12:45 13,4 79 0 0,4 351 269 1019,1
50 Maule 03-05-2026 12:30 13,1 79 0 0 351 246 1019,2
49 Maule 03-05-2026 12:15 12,8 81 0 0,4 351 223 1019,1
48 Maule 03-05-2026 12:00 12,4 81 0 0,4 351 207 1019,2
47 Maule 03-05-2026 11:45 11,8 83 0 0,9 353 241 1019,1
46 Maule 03-05-2026 11:30 11,5 82 0 0,4 351 213 1019,2
45 Maule 03-05-2026 11:15 11,1 84 0 0,9 346 290 1019,3
44 Maule 03-05-2026 11:00 10,4 87 0 1,3 330 269 1019,6
43 Maule 03-05-2026 10:45 9,9 90 0 1,3 344 246 1019,6
42 Maule 03-05-2026 10:30 9,3 95 0 0,4 359 283 1019,5
41 Maule 03-05-2026 10:15 8,5 97 0 0,4 3 209 1019,5
40 Maule 03-05-2026 10:00 7,3 97 0 0,4 88 410 1019,1
39 Maule 03-05-2026 09:45 6,1 97 0 0 95 323 1019,4
38 Maule 03-05-2026 09:30 5 97 0 0 95 90 1019,4
37 Maule 03-05-2026 09:15 4,3 97 0 0 95 128 1019,7
36 Maule 03-05-2026 09:00 3,9 97 0 0 95 77 1019,7
35 Maule 03-05-2026 08:45 3,3 97 0 0 95 79 1019,5
34 Maule 03-05-2026 08:30 2,7 97 0 0 95 155 1019,2
33 Maule 03-05-2026 08:15 2,2 97 0 0 95 60 1019,3
32 Maule 03-05-2026 08:00 1,8 97 0 0 95 47 1019,2
31 Maule 03-05-2026 07:45 1,4 96 0,2 0 95 32 1018,7
30 Maule 03-05-2026 07:30 1,1 96 0 0 95 11 1018,5
29 Maule 03-05-2026 07:15 1,2 95 0 0 95 0 1018,4
28 Maule 03-05-2026 07:00 1,4 95 0 0 95 0 1018,3
27 Maule 03-05-2026 06:45 1,4 95 0 0 95 0 1018,2
26 Maule 03-05-2026 06:30 1,9 96 0 0 95 0 1018,1
25 Maule 03-05-2026 06:15 1,8 96 0 0 95 0 1017,9
24 Maule 03-05-2026 06:00 1,2 95 0 0 95 0 1018,1
23 Maule 03-05-2026 05:45 1,6 94 0 0 95 0 1017,8
22 Maule 03-05-2026 05:15 2,2 96 0 0 95 0 1017,7
21 Maule 03-05-2026 05:00 1,6 95 0 0 95 0 1017,6
20 Maule 03-05-2026 04:45 1,6 95 0 0 95 0 1018
19 Maule 03-05-2026 04:30 1,6 96 0 0 95 0 1017,9
18 Maule 03-05-2026 04:15 1,6 93 0 0 95 0 1018,2
17 Maule 03-05-2026 04:00 2,3 94 0 0 95 0 1018,3
16 Maule 03-05-2026 03:45 2,7 95 0 0 95 0 1018,4
15 Maule 03-05-2026 03:30 2,8 95 0 0 95 0 1018,3
14 Maule 03-05-2026 03:15 2,7 94 0 0 95 0 1018,2
13 Maule 03-05-2026 03:00 3,1 95 0 0 95 0 1018,3
12 Maule 03-05-2026 02:45 3 94 0 0 95 0 1018,6
11 Maule 03-05-2026 02:30 3,1 95 0 0 95 0 1018,5
10 Maule 03-05-2026 02:15 2,9 94 0 0 95 0 1018,5
9 Maule 03-05-2026 02:00 3,2 94 0 0 95 0 1018,6
8 Maule 03-05-2026 01:45 3,1 94 0 0 95 0 1018,5
7 Maule 03-05-2026 01:30 3,2 93 0 0 95 0 1018,4
6 Maule 03-05-2026 01:15 3,7 93 0 0,4 95 0 1018,6
5 Maule 03-05-2026 01:00 4,4 95 0 0,4 95 0 1018,7
4 Maule 03-05-2026 00:45 3,9 93 0 0 95 0 1018,5
3 Maule 03-05-2026 00:30 4,2 91 0 0,4 95 0 1018,4
2 Maule 03-05-2026 00:15 5,3 93 0 0,4 95 0 1018,2
1 Maule 03-05-2026 00:00 5,3 93 0 0 95 0 1018,1